RH
10 10 10 10 10 9 9 10 11 13 17 21 23 24 23 19 14 8 4 2 2 1 1 2 1 1 2 2 3 4 5 5 7 8 10 13 14 17 15 12 8 7 6 5 7 8 11 12 14 16 17 16 33 77 85 70 81 94 92 80 78 77 73 81 84 87 85 75 77 77 77 85 80 77 85 81 80 89 87 82 81 84 90 76 60 53 49 53
9 9 9 9 9 10 9 9 9 9 10 13 18 21 23 24 21 17 10 5 3 2 1 1 1 2 1 1 2 3 4 5 6 7 8 10 13 16 16 15 11 8 6 6 6 7 9 10 13 14 16 26 42 73 85 74 75 86 89 77 76 77 71 76 77 80 87 85 84 85 83 86 85 78 80 78 78 93 90 83 90 96 89 67 58 56 48 50
7 6 7 7 8 8 8 9 9 9 9 9 11 15 19 22 24 23 19 13 6 2 2 1 1 1 1 1 1 2 3 3 4 6 7 8 11 14 16 17 14 11 7 6 6 6 9 7 12 13 18 44 58 60 75 79 73 82 86 74 75 76 68 71 78 79 79 83 88 89 85 82 86 84 80 81 85 92 87 80 88 92 80 62 58 56 47 48
5 5 5 5 6 6 6 7 7 9 9 9 9 10 13 17 21 24 24 21 14 7 3 1 2 1 1 1 1 2 1 3 6 5 6 7 9 12 15 18 18 13 8 6 6 5 8 7 10 15 25 51 58 46 63 80 75 81 84 73 74 72 65 65 72 80 76 78 87 86 83 79 83 85 81 87 94 94 90 85 82 80 74 62 56 53 48 47
3 3 3 4 4 4 5 5 6 7 7 8 9 9 9 11 15 20 23 25 22 16 7 2 2 1 2 1 1 2 -1 9 15 6 4 6 6 10 13 18 20 15 9 6 6 6 8 10 8 15 31 46 52 48 61 80 78 76 77 74 73 67 63 61 59 71 79 76 78 80 82 83 84 82 81 86 91 90 92 91 78 70 70 62 52 49 48 49
3 3 3 3 3 3 3 3 4 4 5 6 7 8 8 9 11 14 19 23 25 23 16 8 2 1 2 -0 2 1 1 16 21 7 5 6 5 8 11 16 20 17 12 6 6 6 7 12 9 15 32 38 45 48 54 71 75 71 71 70 68 63 61 59 53 60 79 81 74 75 76 81 86 82 81 85 88 87 90 90 71 60 66 62 51 46 47 51
4 4 4 4 3 3 3 3 3 3 4 4 5 6 6 8 9 10 14 18 23 25 23 16 7 2 1 1 2 1 1 11 14 9 7 5 4 7 9 14 19 18 13 7 6 6 7 13 14 23 33 30 35 39 44 62 71 71 70 67 64 64 59 55 51 51 70 83 79 80 77 77 82 81 82 83 86 88 87 85 65 52 61 58 45 43 47 51
4 4 4 4 4 4 3 4 3 3 3 3 4 5 5 7 7 9 10 13 19 22 25 23 15 7 1 2 1 -0 5 7 6 8 8 6 4 5 7 12 17 19 15 9 7 6 9 15 20 29 28 21 27 32 43 60 66 67 68 67 63 61 57 51 47 46 60 75 76 80 78 78 81 77 78 80 88 95 88 79 59 47 55 51 40 41 45 47
5 5 5 4 4 4 4 4 4 4 3 3 3 3 5 5 6 7 9 12 14 18 23 24 22 14 4 2 -0 4 13 7 1 4 6 7 5 4 6 9 15 20 17 12 9 7 12 20 22 26 23 19 26 29 41 52 54 60 62 63 62 58 53 48 45 44 57 72 74 75 73 80 89 79 76 86 95 94 85 74 55 45 50 45 40 41 40 43
5 5 5 5 5 5 5 5 4 4 3 3 3 3 4 4 5 5 6 10 12 15 19 23 26 19 11 3 -1 13 19 7 1 2 3 7 6 4 5 7 12 18 20 15 10 9 18 26 24 24 23 23 29 31 37 42 47 56 57 59 63 57 48 46 48 47 59 77 78 73 69 79 94 81 72 88 96 82 76 73 56 53 59 50 46 43 36 43
5 5 5 5 5 5 6 5 5 5 4 4 3 3 3 3 4 5 5 7 10 14 16 20 25 21 17 5 2 23 24 8 4 1 1 6 7 5 4 5 9 16 21 19 12 13 25 32 28 26 24 25 30 32 33 35 47 59 59 58 59 52 44 47 54 53 65 81 78 73 72 74 84 83 79 90 93 80 75 72 59 61 63 55 50 43 41 47
5 5 5 5 5 6 6 6 6 5 5 3 3 3 2 2 3 4 5 4 7 13 15 19 22 24 20 6 4 18 17 9 6 1 1 5 7 7 4 4 8 13 21 23 15 15 27 34 31 28 25 27 28 28 31 33 45 60 60 55 52 45 42 50 58 61 74 81 73 74 78 74 78 84 88 95 94 86 83 77 68 64 59 57 54 45 49 54
5 5 5 6 6 6 6 7 7 7 6 4 4 3 2 3 2 4 5 4 5 9 16 20 21 23 19 13 11 8 5 7 6 2 1 3 9 9 4 4 6 11 23 30 22 18 28 28 23 25 28 30 28 29 36 39 44 54 55 52 49 41 40 50 57 65 78 74 66 76 83 81 84 82 78 85 89 87 87 84 79 74 63 61 58 50 54 56
4 5 6 6 6 6 6 10 10 8 7 5 5 3 3 2 1 3 4 5 4 5 15 20 22 23 17 19 19 6 2 5 4 5 2 3 13 11 4 4 5 10 23 32 30 23 23 15 10 22 31 30 34 40 40 40 42 45 50 50 47 41 40 51 56 64 73 66 65 77 82 82 84 76 68 77 86 86 89 87 83 82 76 67 58 52 56 55
4 5 5 5 5 6 8 12 14 12 10 8 7 4 2 2 2 3 3 5 5 4 13 20 23 21 14 19 18 7 2 2 4 7 3 7 17 13 5 4 5 9 19 29 32 23 14 7 8 22 31 32 41 46 39 35 36 38 45 47 44 39 41 53 56 63 69 65 67 73 79 88 85 73 67 78 89 87 91 93 89 86 83 76 64 54 54 56
5 5 5 6 6 7 9 12 13 13 13 11 8 4 3 3 2 2 2 5 4 4 10 18 22 17 16 29 26 7 1 3 5 7 7 11 20 17 6 4 4 7 15 24 26 18 10 7 10 21 29 31 37 41 36 32 31 34 40 42 41 36 37 47 49 61 70 62 65 73 80 88 79 71 75 87 93 88 86 87 92 94 87 80 71 56 51 53
5 4 5 6 7 8 9 11 11 12 14 13 8 4 3 3 3 4 3 4 5 5 9 16 19 15 17 30 27 7 5 14 11 8 10 15 28 26 10 5 4 6 14 20 23 19 11 8 14 21 27 29 30 33 31 28 26 28 34 36 39 35 33 41 47 62 70 60 63 73 79 78 67 67 78 86 92 90 84 79 85 92 85 78 71 62 55 49
5 6 8 8 10 8 8 10 11 13 16 12 7 4 4 4 3 3 3 5 5 2 10 16 15 18 20 21 23 16 19 31 22 13 14 22 38 32 15 12 7 6 13 19 24 22 15 13 18 21 24 27 27 26 25 25 23 24 31 31 35 36 31 38 48 58 65 68 71 67 66 70 65 68 72 79 89 85 78 81 85 85 80 75 71 67 61 50
7 10 11 12 13 9 9 10 10 15 14 10 7 4 6 6 7 11 7 4 6 13 32 30 16 28 32 23 32 39 41 41 25 18 19 21 33 29 22 23 12 8 16 23 28 27 20 19 22 22 22 24 25 23 22 24 24 23 26 28 32 33 28 34 46 54 58 66 73 63 60 68 67 69 72 80 90 83 78 85 89 85 79 76 75 74 67 53
12 13 12 14 16 12 10 10 13 15 8 7 5 5 19 24 30 41 25 3 5 25 50 44 23 32 36 29 41 46 42 36 30 36 31 20 31 36 36 34 21 19 26 29 31 31 26 21 24 23 19 20 22 22 21 22 24 23 22 26 30 29 23 29 44 55 54 56 69 67 62 69 66 63 67 73 78 82 88 87 84 83 79 78 78 76 70 60
14 14 13 15 16 16 15 12 14 9 4 8 1 10 38 37 39 57 41 19 16 22 38 41 31 34 37 38 45 40 34 32 40 55 43 27 38 46 46 43 35 31 30 28 30 33 29 21 22 22 17 17 17 23 25 23 27 28 24 25 29 28 24 27 38 49 51 53 65 65 59 65 67 62 62 63 66 78 89 83 79 82 78 79 79 74 71 72
15 16 17 17 19 20 17 12 9 4 4 6 -0 21 42 23 21 37 28 27 33 24 26 31 28 33 40 45 44 36 36 35 41 58 50 36 42 45 45 46 42 33 26 26 29 32 30 22 20 19 17 17 16 22 26 27 32 32 28 28 29 27 24 26 29 37 46 47 52 57 55 58 62 62 60 59 62 73 78 75 81 88 80 75 76 76 71 77
17 18 19 21 21 17 13 9 4 4 5 3 11 37 36 8 9 17 12 28 40 28 23 23 23 28 33 39 33 25 34 34 35 52 50 39 42 44 45 45 41 32 24 25 27 28 29 24 20 18 17 20 21 20 23 31 34 30 29 29 29 26 21 23 24 27 37 38 39 45 46 49 53 54 57 61 62 62 62 68 81 92 91 81 74 72 68 76
19 20 21 21 16 13 12 6 3 5 5 5 18 30 20 7 11 11 12 31 39 31 27 23 25 28 28 36 31 21 30 29 31 50 47 38 45 46 45 43 38 33 25 24 26 25 25 22 20 19 17 20 22 20 26 33 33 28 28 25 23 24 19 20 22 24 30 29 30 36 33 37 43 41 48 58 60 58 56 63 74 81 91 91 83 79 78 84
21 21 22 20 16 14 10 6 6 5 7 16 24 21 13 15 14 9 18 36 36 28 26 19 21 28 30 35 29 23 30 24 28 49 42 36 46 43 41 42 38 34 28 26 26 23 21 20 21 19 17 21 24 26 31 32 27 24 24 21 19 21 20 22 23 23 27 26 27 31 26 27 36 41 48 55 60 64 61 64 69 69 74 77 79 85 89 88
23 23 23 20 20 17 12 14 9 4 15 29 27 19 16 18 15 13 30 45 34 21 23 21 20 26 28 30 28 28 31 21 26 43 35 35 45 38 34 39 38 34 30 29 28 22 20 22 22 19 19 26 31 33 31 27 23 18 19 20 22 23 21 22 24 22 22 22 24 26 24 31 43 49 55 61 62 63 65 70 69 64 65 64 67 75 78 75
24 24 22 21 22 18 16 16 8 14 35 36 22 17 19 21 19 25 41 42 24 18 24 24 25 27 25 28 31 27 25 20 26 35 32 36 42 32 27 31 34 33 31 31 28 22 19 23 27 26 27 31 31 30 29 25 21 16 16 19 24 28 25 21 23 22 19 20 23 24 23 32 47 55 60 67 69 62 62 74 75 64 63 65 66 68 68 66
28 28 25 24 23 19 16 13 14 33 42 27 19 20 21 23 25 38 50 36 19 22 25 23 27 28 25 28 29 23 21 21 24 29 29 32 33 27 25 26 29 31 31 30 25 20 21 28 33 32 33 32 27 26 27 24 20 20 20 20 24 29 29 26 24 23 21 19 20 23 22 27 45 61 68 73 76 67 59 71 81 71 64 65 66 68 69 67
31 33 31 29 27 23 22 23 29 41 35 22 27 29 25 29 36 49 52 32 20 23 23 22 26 26 26 27 25 21 20 19 20 24 27 28 28 25 23 24 25 27 33 33 24 20 25 34 39 34 30 28 24 25 28 26 22 24 28 26 25 28 28 28 27 23 23 21 18 20 19 25 47 61 66 74 77 71 66 71 78 77 73 71 67 67 68 67
33 36 36 34 33 29 32 37 38 40 38 33 36 36 31 36 47 52 42 27 22 22 22 24 23 23 25 23 21 19 20 20 21 24 25 25 26 25 22 25 24 23 32 36 26 23 28 35 38 32 26 24 24 27 31 30 25 25 32 31 27 27 26 26 26 22 22 21 18 19 18 27 53 64 63 72 75 71 72 74 75 80 83 86 84 75 65 63
32 35 35 35 37 35 38 46 41 37 40 39 38 37 36 43 51 45 29 23 23 20 23 24 20 22 23 19 18 17 18 21 22 22 22 22 23 24 22 24 25 23 29 32 26 26 29 32 34 32 28 26 25 27 33 34 29 26 31 31 27 25 24 24 24 22 25 21 15 21 19 20 46 64 65 72 75 72 75 77 79 81 83 93 98 90 82 75
32 35 36 35 38 40 40 43 38 33 35 37 37 37 41 48 45 32 22 21 22 21 24 23 20 21 20 18 18 18 18 20 21 20 20 20 20 21 20 20 23 24 27 27 23 24 28 30 32 32 33 32 27 27 33 35 31 28 31 28 23 21 20 21 20 20 24 20 16 22 17 18 43 63 67 71 75 76 77 80 84 83 82 89 93 88 83 75
30 33 35 35 37 40 39 37 34 32 32 34 36 39 50 54 37 24 22 21 21 23 23 22 20 18 17 17 18 19 19 19 20 19 18 19 19 19 21 21 21 21 24 24 20 22 26 27 29 31 34 36 31 28 33 35 31 30 30 25 20 18 20 22 21 19 21 19 19 19 17 34 58 65 66 70 75 78 79 83 87 86 87 89 88 84 74 65
25 30 34 36 37 38 40 39 34 32 31 35 40 43 53 52 33 24 25 23 23 23 22 23 20 16 17 18 18 19 19 20 21 19 17 19 19 19 22 24 24 23 23 21 19 20 22 22 26 29 29 32 33 30 29 28 28 29 28 24 20 18 20 22 19 17 18 17 18 14 16 40 59 61 64 71 76 79 81 87 89 88 89 90 89 90 85 78
22 24 25 29 34 36 38 37 36 34 32 40 49 50 47 40 29 27 28 26 25 21 20 22 19 17 19 20 21 20 19 20 21 20 19 19 19 20 21 22 25 27 26 22 19 19 19 18 22 25 23 26 30 30 27 23 21 24 25 24 21 17 18 18 15 15 16 14 13 14 27 49 61 65 68 69 75 80 84 90 90 86 90 93 94 96 97 86
16 20 28 31 31 32 32 33 36 35 34 43 52 49 41 33 30 32 30 29 29 24 21 21 18 17 20 20 22 22 21 22 21 20 20 21 24 25 24 24 27 29 29 27 22 18 16 16 20 21 20 23 25 24 26 24 20 20 23 24 22 19 18 15 13 14 13 13 11 17 44 66 65 65 68 67 74 79 83 90 92 91 95 98 92 86 93 94
12 26 43 37 25 25 26 31 36 34 34 43 45 38 33 32 34 35 31 29 30 26 24 22 18 18 20 20 21 21 22 22 20 20 21 23 26 28 28 28 27 29 30 29 26 20 16 17 20 20 19 20 22 20 22 23 21 20 20 21 21 20 18 16 16 15 12 14 12 13 41 62 59 62 67 65 70 75 81 92 96 96 96 91 78 63 74 97
10 29 45 31 15 18 23 31 35 34 38 41 37 33 33 33 35 34 28 27 28 28 28 24 20 21 20 18 20 20 21 21 20 21 22 22 24 27 29 29 27 27 26 27 28 22 17 18 19 19 19 20 22 21 20 21 21 21 19 20 21 18 17 20 21 19 14 13 12 14 32 47 49 58 64 62 68 74 82 96 97 86 72 63 62 59 64 81
13 37 52 32 12 13 21 30 33 36 43 40 32 33 35 34 36 33 25 25 28 29 30 27 23 24 22 19 20 19 18 21 20 20 22 22 25 27 28 28 28 27 24 25 29 25 20 19 18 19 20 20 20 18 17 18 19 21 21 20 19 15 16 21 21 20 16 12 16 21 32 50 61 66 67 69 75 80 87 96 92 74 54 43 46 56 62 66
22 43 48 27 8 11 22 32 35 36 40 38 34 37 37 35 37 35 27 27 29 29 31 31 26 24 25 23 22 21 19 21 20 20 23 25 27 28 25 23 24 24 23 25 29 27 23 20 19 20 20 18 18 16 16 18 16 18 20 20 19 17 16 19 18 19 16 13 17 22 36 67 85 80 78 81 82 88 94 88 73 60 52 45 40 42 52 59
33 43 36 17 6 11 24 33 35 33 33 35 38 39 38 37 37 37 33 31 31 30 31 32 30 29 29 26 24 23 21 21 21 22 25 26 28 30 26 22 20 19 21 24 25 25 25 22 18 19 19 17 18 17 19 22 19 17 18 18 18 17 16 18 18 17 16 14 14 19 43 80 92 84 85 89 87 94 100 85 63 53 51 49 44 39 41 46
34 36 24 10 4 15 29 32 31 32 34 36 40 41 38 36 37 37 37 36 35 34 33 32 33 33 32 29 29 27 23 24 26 25 27 29 29 29 27 24 22 21 24 25 23 24 29 28 22 19 19 19 21 21 20 22 23 20 19 19 16 15 16 17 16 15 14 13 12 22 56 87 90 86 90 92 93 99 102 85 59 49 48 46 47 44 40 38
33 28 16 4 5 23 34 30 28 32 34 34 38 42 40 39 40 37 36 37 35 35 34 34 34 34 33 32 31 30 29 30 30 27 28 31 29 27 27 25 25 28 30 29 26 26 28 28 26 24 22 22 24 23 20 21 22 20 20 21 17 15 16 15 17 21 18 14 13 26 64 92 89 86 91 94 99 100 99 89 64 48 47 43 42 43 42 42
32 28 20 5 8 28 34 29 30 31 33 36 37 38 39 41 43 40 40 41 38 36 37 36 36 35 34 35 35 33 32 32 33 31 32 34 32 28 26 24 27 31 32 33 32 29 27 28 27 24 22 22 23 21 21 22 22 19 18 20 21 21 21 19 22 26 24 20 14 20 57 89 91 90 93 93 96 98 99 97 77 56 50 45 42 42 40 41
35 35 30 14 11 25 28 26 31 32 33 38 37 37 39 40 41 42 42 42 40 40 39 37 38 37 35 35 35 35 33 34 35 34 33 34 32 28 26 24 25 26 25 27 27 27 33 36 36 34 27 25 28 26 23 22 21 21 20 21 25 24 22 24 24 24 26 24 23 34 64 90 94 91 91 89 93 98 100 99 88 73 63 52 45 43 41 39
37 35 35 30 25 27 24 23 33 36 35 39 38 37 39 39 39 40 41 42 42 42 42 39 38 37 36 36 36 35 36 35 35 35 34 34 34 30 27 26 25 24 23 22 20 26 35 37 41 46 38 32 38 35 28 23 18 20 23 23 25 23 23 26 21 21 27 22 31 59 77 87 92 88 85 88 92 96 98 99 97 91 82 67 53 48 47 44
37 29 28 37 36 33 32 31 32 32 32 36 36 35 39 40 39 39 40 42 42 41 43 43 40 40 39 39 39 39 41 40 40 41 38 37 38 33 27 28 27 24 24 23 22 28 36 31 31 39 36 29 34 33 29 26 21 21 23 21 23 24 25 26 19 26 34 26 42 75 77 73 87 88 84 90 91 93 97 96 96 97 92 80 65 55 51 48
32 22 15 25 35 37 35 33 32 32 32 34 35 36 38 40 43 44 43 43 43 43 45 44 43 46 45 45 46 47 49 50 47 47 47 44 42 36 31 33 30 26 27 29 26 27 33 32 26 29 31 26 26 28 27 27 25 23 22 21 23 25 25 26 25 33 36 29 50 83 79 74 87 88 90 97 96 97 99 94 95 97 92 84 72 64 60 55
33 30 17 18 29 27 20 23 32 37 33 34 41 43 38 37 40 44 44 44 44 44 49 51 48 48 49 51 55 55 56 56 50 48 49 49 45 40 37 37 36 36 37 35 30 24 27 34 32 27 29 28 24 23 24 25 24 23 23 22 22 24 27 30 30 34 36 37 54 74 75 78 84 82 90 100 98 99 99 95 98 95 86 82 77 73 71 68
30 34 26 29 33 23 22 34 40 38 32 33 41 41 39 39 39 42 47 50 49 46 48 52 51 51 54 55 58 60 59 60 60 53 45 44 45 43 45 46 44 45 44 38 35 30 27 37 40 29 27 29 26 22 21 22 22 21 22 22 20 22 25 28 30 33 38 45 55 66 77 85 85 82 92 101 99 99 97 91 89 84 80 80 78 77 79 77
15 14 17 35 37 22 30 45 45 46 46 43 45 43 40 40 39 42 43 41 51 55 49 51 51 49 54 57 57 58 54 53 57 51 41 44 48 46 51 53 47 48 52 44 38 34 30 37 41 32 27 28 27 24 21 21 20 19 21 20 19 20 22 24 29 32 37 46 56 69 82 88 86 87 96 101 99 99 98 90 81 75 75 76 74 75 78 78
13 9 9 32 41 29 35 45 44 48 42 32 37 41 40 40 41 48 46 36 42 48 46 53 57 51 56 59 52 48 46 47 49 44 39 45 48 45 48 47 41 46 57 53 43 38 39 42 39 29 25 26 26 26 24 21 18 17 21 21 18 20 24 31 36 35 37 47 54 62 76 85 89 94 100 102 99 100 101 94 84 78 74 73 72 71 72 75
Wind_Speed
12 12 11 11 12 12 13 14 15 15 15 15 14 14 14 13 12 12 12 13 12 12 12 13 13 14 14 15 15 15 15 15 16 16 16 18 16 14 13 11 12 14 15 16 16 16 16 15 13 11 9 8 5 5 6 5 3 3 4 4 7 9 10 11 8 7 12 17 17 18 17 17 20 21 20 19 20 17 16 18 18 18 17 19 22 24 25 27
12 12 12 12 11 11 11 12 13 15 16 16 16 15 15 15 14 13 13 13 13 13 13 13 13 14 14 14 15 16 16 16 16 16 17 18 16 15 14 11 12 14 15 15 14 14 15 15 14 13 10 7 5 6 6 6 4 3 4 2 7 9 9 11 9 6 11 13 15 18 18 17 18 21 20 17 19 16 16 19 20 19 19 21 23 23 24 26
11 11 11 12 12 12 11 12 12 13 14 15 16 17 16 16 15 15 14 13 13 13 13 14 13 14 14 14 14 14 15 16 17 18 18 18 17 16 14 12 12 13 14 14 14 14 14 14 14 13 11 7 8 9 7 6 4 4 5 1 6 6 8 9 10 5 9 11 12 16 17 18 17 18 18 17 17 15 16 18 19 20 21 23 24 23 24 25
11 11 11 11 11 11 11 12 12 12 12 13 15 16 16 17 16 16 15 14 14 13 13 14 14 14 13 14 13 13 14 13 17 19 17 18 17 17 16 13 13 13 15 17 17 17 16 17 17 15 12 9 11 11 7 6 4 4 4 3 5 4 6 6 8 6 7 12 11 14 16 17 16 16 17 18 16 13 15 16 16 17 19 23 25 23 23 24
12 11 11 11 11 11 11 11 12 12 12 12 13 13 15 17 17 17 16 16 16 14 14 14 15 15 13 14 12 13 11 6 16 21 16 18 18 17 17 15 14 14 16 20 20 20 20 19 19 17 14 11 12 12 9 8 5 4 4 2 3 2 4 5 4 6 3 12 12 12 14 15 16 18 19 19 16 13 14 15 15 14 15 21 25 23 23 23
13 12 12 11 11 11 11 11 12 12 12 12 12 12 13 14 17 18 18 18 17 16 15 14 15 15 14 14 12 13 11 9 18 21 17 19 18 18 19 17 16 15 16 20 21 21 21 20 20 19 16 12 12 13 10 10 8 5 3 1 1 1 3 4 4 5 2 8 13 12 13 14 17 19 17 15 15 13 13 15 15 14 14 19 25 23 22 23
13 13 13 13 12 12 11 11 11 12 12 12 12 12 13 13 15 16 18 18 18 18 16 15 15 15 15 13 13 13 13 15 19 17 16 19 18 19 20 18 17 16 16 19 21 21 21 20 20 17 15 12 11 13 11 11 10 7 3 2 2 0 2 2 3 2 1 5 12 13 14 14 16 18 15 15 16 13 14 16 15 15 17 21 25 23 22 22
14 14 13 13 13 13 12 12 12 11 12 12 12 13 13 13 13 14 17 18 19 19 17 16 15 15 15 13 13 11 11 18 20 15 15 18 18 20 20 20 19 17 16 18 20 21 20 19 19 15 13 12 11 12 12 12 12 10 6 3 3 1 1 1 2 2 3 5 10 14 14 13 13 14 14 16 16 14 15 16 16 17 20 24 26 24 23 22
16 16 15 14 14 13 13 13 13 12 12 12 13 14 14 14 14 13 14 16 19 19 18 17 15 16 14 14 13 8 11 20 20 17 16 16 19 21 20 20 19 18 16 17 19 21 19 18 18 14 12 11 11 12 13 12 11 11 10 6 5 3 2 2 2 1 6 5 8 13 16 14 11 13 13 14 15 16 17 17 18 19 21 25 26 24 23 22
18 18 17 17 16 15 14 14 13 13 13 13 13 13 14 15 14 14 13 14 17 19 19 18 17 17 14 15 11 6 14 22 18 18 18 16 19 21 20 20 20 19 17 16 19 21 19 15 15 13 14 12 11 14 13 12 10 10 11 9 8 5 3 3 1 3 6 4 8 13 16 15 13 14 13 13 15 16 19 18 19 21 22 24 25 25 23 22
18 19 19 19 18 17 17 16 15 13 13 14 13 13 14 15 15 14 13 13 15 18 19 18 18 16 15 16 11 8 18 21 17 18 17 17 19 20 20 21 21 20 17 16 18 21 19 13 12 13 15 13 10 13 14 13 10 9 11 10 10 7 5 4 1 5 7 3 9 15 15 15 14 14 14 15 16 18 20 20 20 22 24 24 25 25 24 21
18 18 19 20 19 19 19 19 18 15 13 13 14 14 14 15 15 15 14 13 14 16 17 18 18 16 16 15 13 17 20 18 17 17 16 17 18 20 21 21 21 21 18 16 17 20 19 15 16 15 13 12 9 10 13 15 13 10 11 9 9 9 7 6 3 6 8 4 10 16 15 14 13 13 15 16 17 19 21 20 21 22 24 25 25 25 24 22
19 19 20 21 21 21 20 19 19 17 14 12 13 14 13 14 15 15 15 13 13 14 15 17 17 17 16 13 15 21 19 16 16 15 15 16 17 20 22 22 23 23 20 18 17 19 20 20 23 18 11 11 8 10 13 13 14 12 11 10 9 11 10 7 5 8 8 3 9 17 15 14 13 13 16 17 18 19 21 21 21 22 23 25 26 25 24 23
20 21 22 23 24 23 21 20 18 15 13 12 11 12 12 13 14 15 16 14 13 13 14 15 16 16 16 15 18 20 18 17 16 14 14 15 17 19 21 24 25 25 23 21 18 19 23 24 26 19 13 15 8 11 14 12 14 13 11 12 12 12 11 7 6 10 8 5 11 15 12 13 14 13 17 19 20 20 20 20 20 22 23 24 26 26 25 23
21 22 23 24 25 24 23 21 18 14 12 12 11 10 9 10 12 14 15 14 13 12 13 13 14 16 15 13 17 18 18 18 14 14 14 14 16 17 20 24 25 27 26 24 21 23 26 24 25 19 13 16 10 8 13 14 15 15 13 14 16 14 11 8 8 10 8 7 12 11 8 11 12 13 17 18 20 21 21 21 20 21 23 24 25 26 25 23
21 21 23 23 24 23 22 20 18 15 13 12 11 9 7 8 10 13 14 14 13 12 12 12 13 14 11 11 17 17 16 16 15 15 14 15 16 16 19 22 24 26 26 26 24 25 26 24 24 19 12 14 12 9 13 15 16 18 17 15 16 15 11 9 9 9 8 9 12 9 8 11 12 13 16 18 18 18 21 22 21 22 23 24 25 26 26 24
20 21 21 21 20 19 19 18 17 15 15 14 12 9 7 7 9 12 13 13 12 11 11 10 11 13 12 14 17 16 14 15 16 16 16 16 15 17 19 21 23 24 24 25 23 21 23 24 23 18 14 14 15 14 16 18 19 19 19 17 16 15 12 9 10 10 7 8 11 8 7 9 11 13 14 19 21 18 19 20 21 22 23 24 25 26 27 26
19 19 19 18 17 17 17 16 15 15 16 15 12 8 7 7 8 10 11 11 11 9 8 9 9 8 10 14 13 13 14 15 17 17 18 18 16 18 19 18 21 22 23 22 21 20 20 21 19 16 16 16 17 20 20 19 19 18 19 19 16 16 16 11 11 11 9 9 11 9 9 9 9 12 14 18 21 19 19 20 19 20 21 23 24 26 27 27
18 18 17 16 16 15 15 14 14 16 16 15 11 6 4 4 5 7 9 10 10 6 1 7 10 6 4 8 9 10 14 16 17 17 18 19 18 18 17 17 18 20 20 19 19 20 18 18 18 18 18 19 20 22 22 18 15 18 19 18 16 17 18 12 9 11 12 10 9 10 11 10 8 10 13 16 18 18 18 21 21 18 20 22 22 24 27 28
18 17 17 16 15 14 12 11 13 14 14 14 11 6 6 6 7 8 8 8 10 12 4 6 12 9 3 6 10 16 20 18 16 16 17 18 17 16 16 16 17 17 17 17 17 18 19 19 20 21 19 20 21 21 23 18 13 16 19 19 17 17 15 12 9 10 10 9 10 12 10 8 8 9 10 11 14 16 15 18 19 16 18 20 21 23 25 26
17 16 16 15 13 12 11 11 11 11 10 11 10 7 7 4 1 3 8 5 6 12 11 8 12 11 8 9 11 14 17 16 14 14 16 17 16 15 15 15 16 17 17 16 15 17 19 20 21 21 19 18 20 20 21 18 14 14 16 20 20 18 14 10 10 10 10 10 9 9 6 5 7 7 9 9 10 14 13 14 16 14 16 18 19 22 24 25
16 15 14 12 11 10 10 9 8 8 8 8 7 6 5 5 7 8 8 2 5 10 11 12 16 15 13 15 15 14 14 16 15 15 17 17 16 15 15 16 17 16 18 17 16 18 20 22 20 19 18 16 17 20 19 15 14 14 13 16 21 20 13 9 9 10 10 11 7 6 6 7 7 5 6 6 6 9 10 11 13 12 13 15 16 19 23 25
15 15 14 14 13 11 11 9 7 8 7 7 5 3 6 5 5 7 5 2 4 9 8 11 13 12 12 13 16 17 17 15 16 17 19 18 17 15 13 16 17 15 18 19 19 19 20 21 19 17 18 16 15 19 19 13 15 17 13 15 20 20 14 9 12 12 11 11 9 9 10 9 9 6 4 6 5 6 7 9 13 13 12 12 14 18 21 23
16 16 15 16 15 14 13 11 10 10 9 8 5 3 6 4 3 4 5 3 5 7 6 9 11 10 10 11 13 17 16 13 16 19 20 19 18 15 13 16 17 16 18 20 19 18 17 17 19 18 18 17 16 18 19 15 16 18 17 17 18 21 16 8 10 13 11 10 8 9 11 13 16 10 9 12 10 7 7 9 12 13 14 13 13 17 20 22
16 16 16 16 15 15 14 12 12 10 9 9 6 6 5 1 2 3 5 3 6 5 6 9 12 11 13 14 13 15 14 11 15 18 19 19 18 14 12 15 17 16 17 19 19 18 15 14 17 20 19 18 17 18 19 18 16 17 20 19 17 20 18 9 7 10 11 12 13 11 10 11 14 13 13 14 12 10 9 11 12 11 13 14 15 17 20 22
16 16 15 15 15 15 14 13 11 9 9 8 6 7 3 1 2 6 4 4 8 5 2 6 8 11 13 14 14 14 12 11 13 17 17 18 17 14 11 14 18 16 15 17 17 17 17 15 16 18 19 19 17 17 19 19 18 17 18 20 16 16 18 17 11 11 13 13 15 16 11 7 9 9 11 10 12 13 11 10 12 13 14 15 17 18 19 20
15 15 15 15 15 15 14 12 10 9 8 7 7 6 1 4 5 7 1 6 8 7 6 7 6 8 9 12 16 14 13 15 15 13 15 18 16 14 13 13 16 14 13 17 17 17 18 16 16 16 17 20 19 17 17 19 19 15 14 20 17 10 13 18 14 15 16 10 13 15 14 9 9 6 6 8 11 12 13 12 12 14 17 16 17 18 19 20
14 15 15 15 14 14 13 11 11 8 4 6 5 3 3 5 5 4 3 3 6 6 7 8 6 9 8 12 17 12 9 14 15 13 14 18 15 14 13 11 15 13 12 17 17 16 17 15 16 18 17 18 20 18 15 18 19 12 9 16 17 12 11 13 13 15 16 13 13 15 16 12 9 8 7 8 11 9 11 12 9 11 15 16 18 18 19 21
12 13 14 15 14 14 12 12 12 8 4 5 4 3 4 4 3 2 4 1 5 4 6 6 7 9 9 13 16 11 8 10 13 15 16 17 16 16 12 8 13 14 12 17 17 14 16 15 15 18 19 18 18 17 14 19 20 10 6 11 14 14 15 13 13 15 16 18 15 14 18 13 6 9 11 8 10 9 7 8 6 7 9 11 16 17 17 19
10 11 12 13 13 12 11 12 13 11 7 6 4 3 3 3 5 4 5 1 4 5 6 4 8 11 12 16 14 12 11 8 8 14 15 14 16 16 12 8 12 14 12 17 19 12 12 15 14 17 20 17 17 17 14 19 21 10 5 10 13 13 15 15 15 16 15 16 17 16 19 15 7 7 12 8 8 8 6 6 6 5 6 6 10 13 16 20
8 8 9 10 11 11 10 9 10 11 8 5 3 2 2 2 3 5 1 5 5 6 5 4 7 12 15 17 14 13 13 9 9 14 13 13 15 14 12 10 11 13 13 17 20 13 10 13 15 16 18 17 17 19 16 16 20 13 7 11 13 13 14 15 16 16 11 12 19 19 19 18 11 10 11 8 6 6 5 4 4 5 6 8 9 11 14 17
7 7 6 7 8 9 8 5 6 8 8 6 4 3 3 2 5 2 4 5 4 4 5 6 8 14 17 16 15 14 13 11 12 14 13 14 16 14 14 14 14 14 14 17 20 15 12 14 14 15 16 16 18 21 19 15 18 16 12 14 15 13 13 12 13 14 11 13 17 20 23 16 10 12 12 10 7 6 5 3 4 4 5 7 10 13 14 14
6 6 5 5 6 5 5 5 4 6 9 7 5 3 1 5 3 2 5 2 2 3 4 7 10 14 15 15 15 15 14 12 13 15 14 13 14 14 13 12 13 15 13 16 21 17 13 15 16 16 17 18 18 21 22 18 18 19 17 17 15 11 9 9 9 10 11 14 15 20 23 13 13 13 10 11 10 7 5 3 4 4 5 6 8 12 14 14
7 7 5 5 4 2 3 4 4 4 6 7 6 3 5 5 1 4 5 5 3 3 5 8 10 12 13 13 13 15 14 11 12 14 14 13 14 14 13 10 12 12 10 14 22 19 13 13 18 17 15 20 21 19 19 16 19 22 19 17 17 14 10 8 9 10 11 14 15 19 19 13 15 13 10 12 10 9 7 5 6 7 7 7 9 11 13 15
8 7 7 6 4 3 2 2 2 3 4 7 5 8 8 2 5 5 4 5 3 2 6 9 10 12 13 12 13 14 13 11 13 14 14 15 13 13 13 11 12 9 8 10 17 21 15 9 16 17 12 19 25 19 14 12 17 22 20 19 20 19 15 11 12 13 14 14 15 15 8 10 15 14 12 11 10 10 8 7 9 9 8 9 10 11 11 13
10 9 9 9 8 6 5 2 2 2 4 7 8 9 4 5 7 7 4 2 2 1 5 7 10 12 12 12 13 14 10 11 15 15 13 10 5 5 7 8 11 9 7 9 8 19 18 10 16 17 11 16 22 20 17 14 13 16 22 23 20 18 17 16 14 16 16 12 13 16 11 15 15 12 11 12 11 10 8 8 9 8 7 8 10 13 12 11
11 9 6 10 11 8 5 2 3 2 3 6 8 3 5 5 5 6 2 1 0 3 3 4 9 9 9 12 14 14 12 11 15 15 12 8 5 3 3 5 12 12 7 6 7 10 13 11 14 15 12 14 17 17 19 20 14 11 19 22 18 18 18 15 11 13 15 9 13 21 18 16 15 12 13 14 12 10 8 8 7 7 6 5 8 16 15 9
10 7 3 10 13 8 4 1 2 1 2 5 4 4 5 4 5 4 3 5 5 3 2 3 6 6 7 11 13 14 14 13 15 14 11 10 8 5 4 6 11 17 15 6 6 6 7 8 11 13 12 13 16 16 18 23 19 13 14 15 17 21 18 14 12 10 12 10 10 18 19 16 14 15 17 16 12 10 7 6 7 6 4 5 8 16 16 9
9 8 3 12 15 8 2 3 5 1 4 3 1 3 4 5 5 3 6 8 6 3 4 3 4 4 3 7 10 12 12 12 14 13 10 8 6 5 6 7 9 17 21 12 5 4 8 6 8 12 11 11 15 18 19 23 23 17 12 12 19 22 18 17 18 13 12 12 8 12 15 9 8 13 17 15 12 9 6 6 7 5 5 7 9 15 19 17
8 5 7 14 14 5 4 5 3 4 5 1 3 3 3 5 5 4 6 8 5 3 1 3 1 1 2 5 7 8 9 9 11 10 7 6 4 4 7 10 12 15 19 17 9 5 9 10 5 10 11 12 15 18 16 16 21 22 18 15 18 19 18 19 22 20 15 12 8 10 10 8 12 15 14 13 11 7 6 8 9 8 7 7 9 13 17 19
8 2 9 13 10 4 7 6 3 3 1 2 3 2 3 3 4 4 3 6 5 4 3 1 1 1 1 2 3 4 6 6 7 6 4 5 5 3 6 10 12 13 14 15 13 9 9 12 7 10 13 13 13 18 17 9 11 18 20 20 19 20 19 17 18 22 20 16 13 9 7 9 14 15 12 10 9 7 7 8 11 12 10 8 8 10 13 16
7 3 9 9 7 6 8 4 2 2 2 2 2 2 2 2 3 2 2 3 2 3 4 4 3 1 0 1 1 2 4 3 3 3 2 5 6 5 7 9 11 12 9 8 12 12 11 13 10 6 9 8 9 19 22 13 11 13 12 15 18 22 24 20 16 20 22 22 16 6 10 10 14 13 10 10 9 8 8 8 12 13 12 11 10 9 10 12
5 2 4 6 6 11 8 2 3 4 2 2 2 1 3 4 4 3 1 2 1 2 3 4 5 4 3 2 1 2 3 1 1 3 3 3 5 8 9 11 10 9 7 5 7 11 13 14 12 4 6 4 3 12 19 16 15 17 13 10 13 18 22 21 16 14 18 23 18 8 9 10 14 13 10 11 10 8 8 8 11 13 13 12 11 10 10 10
4 5 7 8 7 11 7 2 3 4 3 4 3 2 3 4 5 6 5 3 4 3 3 3 3 4 4 5 3 2 3 3 2 3 2 2 5 8 10 12 10 6 7 9 9 9 12 12 11 9 9 7 5 9 15 16 16 19 17 13 13 13 13 14 12 10 12 19 19 10 7 12 16 14 11 11 11 9 8 8 9 12 12 12 11 11 10 10
5 6 8 10 9 9 5 3 5 4 5 6 5 4 2 1 4 5 5 5 5 4 3 3 3 3 3 4 5 3 3 3 2 4 4 2 5 9 9 10 10 8 9 11 11 10 7 5 6 7 7 7 5 5 10 15 17 18 16 12 14 15 12 12 13 12 12 15 12 2 13 19 18 16 14 14 12 11 10 8 9 10 10 11 10 10 10 9
4 3 4 7 9 8 6 6 6 4 4 4 3 4 3 2 1 2 3 3 3 5 4 2 3 2 3 3 4 3 2 2 3 4 5 3 4 7 9 8 8 9 9 8 11 10 4 3 4 2 3 2 3 2 3 10 17 18 13 10 12 15 13 14 17 16 14 14 7 6 16 22 21 19 19 16 13 13 11 9 9 8 8 9 9 9 8 8
3 1 1 1 4 7 7 7 6 4 3 3 3 3 3 3 3 1 2 1 3 4 3 2 2 2 2 4 3 3 3 3 5 5 5 4 3 5 7 6 5 7 7 5 8 7 3 6 7 2 2 3 5 3 3 5 11 12 9 9 8 10 13 17 20 15 12 13 8 12 17 22 26 23 20 18 16 14 12 10 9 8 8 9 9 8 8 7
3 2 2 3 3 3 4 5 6 6 5 5 6 6 3 3 4 4 3 3 2 2 1 1 3 2 2 3 2 3 3 3 5 6 5 3 3 3 4 3 4 5 4 2 5 8 5 5 6 4 3 1 1 0 1 2 6 6 5 5 5 6 11 16 16 12 12 13 10 17 18 21 27 25 20 18 16 14 13 10 9 10 10 11 10 8 7 6
4 3 3 3 3 2 3 6 7 7 8 8 8 7 5 5 5 5 5 5 4 3 3 3 3 2 2 2 2 3 4 3 3 6 7 3 2 3 2 2 2 2 2 3 4 8 7 5 4 4 4 3 2 2 2 1 4 6 5 4 4 4 6 8 8 8 10 10 12 20 20 20 24 23 20 17 15 14 12 9 9 12 13 13 11 9 8 6
2 2 3 4 4 4 5 7 6 6 7 9 8 7 7 7 6 6 7 6 5 5 6 6 5 4 4 4 4 4 4 4 4 5 8 4 2 3 2 3 3 3 4 5 5 6 7 6 7 6 6 6 4 4 5 4 4 6 7 5 5 5 5 5 5 5 8 10 14 20 22 23 23 21 18 16 13 12 12 11 13 16 17 15 13 11 10 8
2 1 4 4 3 4 7 6 5 5 6 6 6 7 7 7 7 7 6 7 8 7 6 7 6 5 5 5 5 4 3 4 3 4 8 5 2 3 3 5 6 3 5 5 6 6 6 6 7 6 8 9 7 5 5 5 6 9 9 9 9 8 7 6 6 6 9 14 18 22 24 25 24 21 17 15 13 11 12 14 17 19 18 17 16 13 12 10
2 2 4 5 3 4 5 4 3 3 2 3 6 7 7 5 4 5 4 4 6 7 6 7 5 4 5 4 3 2 3 5 4 5 7 6 3 3 3 5 6 4 2 2 4 5 6 6 6 7 10 10 8 6 6 6 8 10 11 10 10 9 8 7 6 5 7 13 17 20 23 24 22 18 16 15 14 12 12 15 19 19 18 18 17 15 14 13
Wind_Direction
321 316 311 306 299 293 286 281 278 275 272 270 268 268 266 264 260 256 255 256 256 254 251 248 244 242 238 235 236 232 230 227 226 222 218 220 218 220 220 212 208 207 205 203 205 205 204 202 201 206 214 230 231 226 230 232 241 236 267 333 18 38 38 19 40 100 126 132 138 137 142 148 149 149 149 154 153 147 142 134 123 123 139 154 156 155 156 153
329 325 323 318 313 306 297 291 283 278 273 270 268 266 266 265 264 260 255 254 254 253 253 251 245 243 240 236 235 234 234 230 228 224 222 222 217 218 218 208 202 203 204 200 199 200 202 201 198 203 208 221 232 220 219 235 229 212 260 360 47 50 50 19 23 107 134 135 141 138 140 146 148 147 145 149 151 147 145 135 124 136 150 149 152 156 156 153
333 331 327 323 320 315 310 304 294 287 280 274 269 265 264 263 263 262 258 255 251 250 250 251 249 244 241 238 234 234 234 234 233 226 223 223 216 217 215 204 201 198 195 190 189 192 194 198 198 201 199 201 231 228 209 228 229 209 247 84 78 59 59 36 19 70 143 144 139 138 139 138 142 145 145 146 147 148 146 138 137 149 150 146 152 156 155 154
334 332 328 324 321 316 313 308 304 298 291 284 276 269 264 261 260 260 258 256 252 249 247 249 251 246 242 240 235 233 232 239 240 228 221 223 216 216 214 203 202 194 186 184 184 185 187 193 195 194 192 201 234 235 218 222 215 211 235 102 91 58 55 55 24 24 144 150 141 138 138 137 140 140 140 142 141 146 147 145 149 152 150 149 153 155 155 153
336 333 329 327 321 316 311 306 305 301 297 293 286 278 270 262 258 256 257 256 252 250 246 246 249 247 244 239 234 231 222 226 241 229 219 223 215 214 213 203 203 195 187 185 182 183 185 190 192 191 191 204 232 234 226 222 217 247 266 59 79 50 50 73 38 359 136 153 144 131 136 138 137 138 141 145 147 147 147 151 156 157 158 155 152 155 156 152
339 338 335 332 327 321 313 307 302 298 296 292 289 285 277 268 260 255 253 254 252 249 246 244 246 246 245 239 233 228 201 194 236 232 220 222 213 212 212 203 203 197 189 187 185 184 184 189 190 191 194 203 226 229 227 228 225 237 257 233 135 56 50 74 57 357 6 155 152 137 141 138 134 141 142 146 149 140 142 151 154 153 158 158 153 154 155 152
343 342 341 338 335 330 322 314 305 297 292 287 286 282 278 273 265 257 251 250 251 248 244 243 244 244 244 239 232 225 205 212 235 231 221 220 211 210 210 204 203 198 192 189 188 186 184 188 188 190 198 207 224 227 228 229 218 203 204 224 209 108 51 42 39 41 320 186 166 156 153 144 141 146 142 145 144 135 144 152 148 144 152 157 151 152 155 152
345 344 343 341 339 334 327 320 311 303 293 285 280 275 274 271 266 261 254 248 247 246 243 240 240 242 242 240 234 223 219 228 230 225 222 217 209 210 209 205 202 198 195 189 188 187 185 189 187 188 201 216 228 223 225 224 218 218 222 230 217 240 11 313 7 117 233 228 177 169 160 150 146 144 140 144 143 140 149 152 146 143 151 154 148 151 155 152
344 342 342 343 341 337 330 323 317 310 299 286 276 270 268 267 265 262 257 252 247 244 242 238 236 238 238 239 231 208 228 234 228 224 223 215 209 210 208 206 201 200 197 187 188 187 185 192 187 186 201 222 231 223 225 223 224 228 224 230 230 251 272 253 347 214 244 238 182 174 162 151 144 144 141 142 145 147 149 147 146 144 146 147 145 149 154 154
340 338 339 342 344 342 336 330 325 315 304 291 278 268 264 262 262 260 257 254 249 244 241 238 234 233 233 236 220 192 237 238 231 225 219 215 210 208 207 205 200 201 199 188 188 187 185 190 188 194 205 213 229 222 219 221 230 230 220 233 239 239 251 250 335 204 233 231 180 174 165 155 146 149 145 141 147 148 146 145 147 146 144 145 147 151 154 157
336 335 337 340 343 344 338 337 334 324 310 296 285 273 263 259 258 259 257 253 250 246 240 237 235 229 228 230 204 200 237 236 231 225 216 215 209 206 206 203 200 198 199 192 189 188 182 182 191 204 205 208 229 224 217 222 234 233 220 233 241 233 238 239 193 186 212 192 166 168 164 156 148 149 146 145 151 148 147 149 150 151 151 151 153 155 156 160
334 334 335 338 342 342 338 338 337 331 317 301 291 280 267 258 255 255 256 253 250 247 241 236 234 228 225 225 209 216 232 231 228 223 214 213 207 205 203 200 199 196 195 193 192 190 183 190 195 192 204 211 220 228 225 226 230 229 222 233 242 229 223 218 175 178 199 178 163 163 155 159 159 157 157 153 152 149 149 152 152 156 157 156 158 159 160 163
335 335 337 338 339 340 337 336 336 332 322 307 294 283 273 262 253 251 254 253 249 247 243 235 230 228 222 216 218 224 229 228 226 220 213 210 204 205 202 196 196 193 190 188 193 191 189 201 193 182 212 209 202 233 223 217 224 226 228 235 240 226 212 201 184 190 200 172 165 162 155 172 176 170 170 158 150 153 154 155 155 157 162 162 163 164 165 167
338 339 338 338 337 337 336 335 336 333 323 316 304 290 279 268 256 250 250 251 250 245 243 236 227 226 219 215 224 225 228 229 223 216 213 208 202 203 201 197 194 192 189 184 188 194 197 202 189 182 212 197 199 245 218 212 223 221 228 229 230 226 206 190 189 194 188 137 158 165 158 171 172 174 175 158 153 160 158 159 162 159 164 168 167 169 170 169
340 338 336 334 333 332 332 333 336 336 327 321 315 302 286 274 263 253 247 249 249 243 242 236 225 223 218 224 232 224 224 229 221 213 211 204 201 200 199 199 196 195 193 185 187 198 199 198 189 187 204 200 213 238 207 216 223 215 223 222 225 230 210 192 195 198 194 156 160 172 164 160 160 169 172 161 161 167 162 163 167 163 165 170 172 173 173 172
336 332 331 329 327 327 327 329 333 333 331 329 325 316 298 280 267 254 246 244 244 241 237 231 226 219 205 218 229 222 220 222 216 208 204 200 196 195 196 198 199 199 199 195 196 200 196 191 190 192 201 209 218 209 201 215 215 212 219 219 223 225 212 204 201 201 208 177 158 160 161 161 165 168 167 167 171 175 171 169 171 168 167 171 176 177 175 176
329 328 327 325 325 323 321 325 329 327 327 330 330 323 309 291 272 258 245 238 237 237 232 228 222 209 204 217 222 218 212 210 211 205 198 194 191 194 193 194 199 200 202 205 206 205 199 193 189 194 203 210 213 207 208 212 208 207 211 218 224 221 218 206 187 189 203 175 154 146 146 151 169 176 170 170 174 180 177 173 175 173 170 173 177 179 179 180
328 328 326 325 324 317 318 322 322 322 325 329 333 330 319 303 279 261 243 233 229 224 231 232 210 200 224 226 220 218 206 201 205 202 197 190 187 195 188 187 198 198 201 208 207 204 203 196 192 200 208 210 209 207 210 211 208 205 207 214 217 221 224 205 182 192 196 174 158 153 148 140 160 176 175 175 178 184 176 171 176 176 173 174 176 178 181 183
331 329 325 325 324 321 323 319 318 323 325 331 337 344 340 324 305 282 255 233 207 172 273 242 191 169 222 201 180 184 193 202 202 197 198 194 192 194 183 182 191 193 198 204 204 202 197 192 197 206 209 211 208 206 211 211 213 215 212 211 211 220 221 200 185 189 187 191 188 173 156 147 159 170 177 181 183 187 175 169 174 175 172 174 175 177 182 186
332 326 323 325 325 326 323 318 322 323 323 328 330 356 20 359 350 323 278 239 192 172 188 225 183 168 174 165 170 184 192 199 193 192 199 197 192 187 183 183 181 185 191 197 202 199 193 194 202 207 207 210 208 208 212 217 236 234 219 210 210 222 215 191 189 189 186 199 187 166 148 151 174 174 174 175 180 185 177 173 177 175 173 172 174 177 182 185
332 328 328 327 326 326 322 322 323 320 324 324 320 354 5 319 264 273 269 272 235 205 205 211 191 192 199 177 183 199 201 193 180 190 200 192 183 181 187 184 176 187 190 190 196 193 197 204 208 208 207 210 211 212 216 226 246 247 227 207 204 222 219 184 184 195 197 196 175 157 146 167 185 184 184 178 177 182 181 181 181 178 175 171 174 179 181 182
340 344 347 351 349 338 331 331 328 331 338 331 335 2 332 259 201 228 252 273 280 242 225 219 203 201 204 192 189 189 185 186 182 190 199 188 176 178 191 188 182 193 190 185 189 189 201 211 210 209 207 210 214 214 218 226 229 234 233 205 203 216 203 169 188 198 199 199 193 184 173 172 172 171 184 178 175 189 191 180 172 174 178 176 178 181 181 180
356 3 9 14 8 358 353 350 351 355 351 348 3 342 295 273 221 237 230 167 272 258 242 227 211 206 210 210 210 190 174 189 191 189 199 187 170 175 192 193 189 195 191 189 192 191 204 212 208 207 205 208 213 212 214 219 216 222 223 202 206 209 190 185 205 194 195 205 201 197 190 171 167 167 155 153 174 203 196 176 170 173 178 183 185 183 183 182
9 13 18 19 15 12 6 3 7 7 4 6 15 313 296 290 248 223 181 175 249 248 242 220 201 195 204 215 215 186 171 191 191 191 200 184 172 181 192 195 195 200 198 196 199 200 209 213 206 205 205 206 210 208 208 210 212 217 220 212 210 211 208 212 197 178 189 209 192 189 195 173 166 173 168 164 176 196 197 189 182 177 176 177 177 178 181 185
18 20 23 20 20 17 9 13 15 10 11 10 7 336 320 285 239 176 153 181 198 213 253 219 190 189 204 207 192 173 177 198 191 198 202 181 178 188 191 198 199 204 202 197 203 210 213 209 203 205 204 203 207 205 204 210 214 217 221 223 220 220 216 195 168 174 191 206 193 192 202 171 155 158 162 165 175 185 196 198 193 193 188 177 173 178 180 186
24 26 28 24 23 20 16 19 14 14 17 1 347 342 340 117 163 151 142 224 185 158 210 189 184 200 207 197 173 163 184 193 182 200 202 178 180 191 192 202 201 205 206 197 205 215 213 205 201 202 198 198 204 204 205 209 217 222 218 217 225 236 219 193 189 209 213 210 197 204 216 167 141 151 160 179 191 188 193 205 212 213 203 188 180 183 184 187
32 33 34 31 27 24 23 20 12 25 17 331 330 344 36 123 144 132 71 239 169 119 149 150 152 183 180 176 171 170 184 178 166 189 197 176 179 195 198 200 199 204 205 197 205 214 209 199 193 194 191 196 203 205 204 204 216 227 213 207 215 237 219 195 199 223 225 204 174 200 220 188 169 177 169 185 191 189 190 203 224 213 199 196 190 189 191 190
38 38 38 37 34 32 31 26 26 33 349 315 342 18 108 134 131 96 343 260 117 101 159 164 176 173 155 168 178 181 187 183 178 183 186 177 174 185 194 199 200 204 200 196 203 203 200 194 189 191 193 199 204 203 201 201 213 223 197 198 205 211 210 199 208 225 231 223 188 198 219 204 172 168 173 178 176 181 186 188 214 209 194 196 195 193 193 190
44 43 40 38 38 41 41 38 39 37 357 359 43 75 118 134 80 18 273 292 82 120 156 176 198 177 163 172 178 186 186 193 196 181 178 186 178 175 191 207 202 205 201 201 205 193 192 199 193 196 202 205 204 201 200 199 205 208 181 198 207 210 212 214 224 227 232 238 222 207 213 205 152 157 179 175 160 161 173 177 199 212 197 194 197 199 197 193
47 47 45 42 41 46 52 48 40 34 29 39 66 82 102 81 16 318 255 96 99 142 133 153 176 165 170 172 174 183 178 179 181 167 174 193 186 183 199 202 196 207 202 206 216 202 190 203 202 204 208 207 203 200 199 201 203 205 188 200 207 210 215 220 229 231 233 231 224 223 212 188 142 166 178 157 146 148 153 172 177 193 197 189 202 208 198 191
44 46 50 50 46 44 48 43 23 21 30 34 40 59 61 37 325 296 24 87 110 136 148 173 167 168 173 172 174 181 180 176 167 166 171 181 186 194 205 193 192 205 198 204 217 206 188 200 200 204 207 205 205 199 197 205 209 212 203 199 199 198 205 214 220 227 236 224 214 222 219 194 169 172 163 135 135 144 147 175 169 184 193 177 189 205 197 190
31 40 47 53 51 41 41 41 16 26 43 38 42 64 40 317 253 233 84 102 127 129 173 182 161 169 175 176 175 175 180 177 170 176 174 175 187 194 199 198 192 196 195 198 204 198 195 206 202 204 204 200 202 198 194 204 209 207 206 205 199 190 194 205 211 215 228 228 213 213 224 215 155 144 145 126 124 127 133 155 151 172 183 169 183 195 196 197
8 19 24 42 49 41 36 29 16 47 62 60 60 64 329 276 273 65 64 67 144 135 176 177 167 173 179 180 175 172 180 178 177 186 181 181 189 185 196 210 200 205 210 196 194 192 194 205 202 200 198 194 198 197 192 196 203 203 204 207 204 193 189 199 205 208 217 225 220 213 215 194 123 132 143 126 119 112 115 126 124 139 143 142 170 184 190 196
351 356 359 14 22 19 20 9 10 45 60 54 41 347 259 244 71 59 47 47 89 154 168 174 178 175 174 178 174 174 177 176 180 185 180 188 194 187 198 209 196 211 235 208 197 193 190 197 193 191 197 197 201 204 196 194 203 205 208 211 213 210 198 197 206 208 208 212 218 218 209 170 139 148 142 127 120 107 107 102 97 107 120 131 150 166 182 196
338 338 346 357 358 344 315 301 3 12 40 37 353 279 273 329 54 34 36 62 55 171 164 177 186 175 170 172 173 177 178 176 180 181 182 189 194 187 188 192 189 205 262 242 203 194 199 195 178 182 195 194 199 211 210 203 205 204 208 216 220 216 209 215 217 209 206 207 209 209 184 125 136 141 133 132 119 105 98 89 98 108 128 146 151 153 164 187
338 344 348 348 348 340 318 282 292 319 50 18 308 268 297 25 30 12 26 67 343 189 159 189 193 178 175 175 178 183 180 176 181 186 185 179 167 153 154 181 199 212 283 297 235 202 202 171 158 175 185 186 200 212 211 214 215 203 204 214 221 217 216 227 223 207 211 215 198 183 134 110 135 141 143 143 123 114 101 86 96 101 121 145 157 163 157 168
341 346 328 329 339 336 328 313 273 296 41 346 314 337 37 26 19 11 31 74 50 157 164 219 198 187 188 184 183 185 179 177 181 182 180 173 157 146 164 208 216 221 249 311 299 227 198 153 154 184 193 189 202 207 205 219 233 215 206 211 218 219 226 246 242 208 209 217 195 183 159 145 159 157 155 154 133 123 109 89 93 90 99 131 172 183 172 152
346 3 327 329 343 340 331 356 163 93 10 318 331 41 34 29 37 33 140 132 120 139 293 264 189 194 208 187 180 184 182 180 184 182 179 186 181 170 202 221 219 223 222 237 312 266 207 155 153 183 199 193 199 203 206 217 227 234 227 215 214 216 219 239 251 229 210 214 202 180 168 169 179 168 165 163 142 135 129 98 95 100 132 163 190 200 196 174
3 33 305 313 338 347 4 113 120 76 302 290 64 82 61 55 48 59 144 147 126 97 341 321 184 197 210 178 175 184 184 183 193 193 180 180 183 174 199 203 204 216 216 220 283 271 229 217 164 174 193 190 192 201 206 210 215 230 245 228 220 220 214 216 232 241 220 213 205 173 166 162 153 151 158 157 143 145 151 121 118 142 175 179 189 203 208 205
33 57 260 297 334 6 111 103 67 329 296 292 75 100 98 65 43 56 131 149 136 119 33 348 285 215 146 162 172 180 190 195 195 193 174 158 161 180 205 202 201 211 211 215 237 242 233 245 192 156 180 192 189 194 201 204 209 217 223 217 215 217 215 214 223 233 228 217 209 187 171 134 128 140 143 143 143 148 146 135 145 166 175 176 185 193 201 208
57 61 268 306 340 48 85 55 3 328 322 103 76 111 155 119 57 37 98 135 136 164 172 121 44 59 115 174 170 173 193 194 178 178 177 158 146 165 209 206 204 205 204 211 221 224 233 241 214 161 183 200 187 189 200 195 191 205 211 213 212 209 211 214 218 225 228 231 226 197 149 134 147 150 137 134 146 143 133 139 155 166 172 175 182 190 194 199
39 294 270 312 352 73 76 39 14 56 74 134 118 114 151 117 62 26 68 93 103 172 173 172 158 115 89 129 90 170 184 173 163 168 156 158 171 194 199 194 188 180 182 206 214 216 226 236 235 192 178 185 169 189 206 199 172 184 204 218 219 211 212 219 220 220 228 237 234 160 111 139 156 150 141 141 143 136 131 145 164 170 173 175 177 185 194 197
29 321 304 339 36 82 85 62 74 69 65 122 130 137 118 84 59 45 71 70 57 134 158 185 189 192 204 173 118 157 173 168 170 151 108 141 203 209 189 177 170 161 166 197 206 210 216 226 242 222 151 157 180 203 215 211 193 197 209 227 227 215 217 225 229 233 234 231 221 164 117 147 157 154 156 146 133 130 128 139 166 175 175 177 177 178 184 194
40 22 6 4 54 82 75 42 70 77 83 84 85 129 147 125 93 70 60 74 80 87 120 147 171 194 197 192 198 195 192 202 190 173 142 121 194 198 181 174 170 161 176 184 184 195 206 219 236 222 191 199 210 205 213 213 210 213 216 224 232 231 238 243 245 256 244 231 229 215 150 153 162 164 160 147 139 135 125 127 154 169 171 172 174 176 178 182
14 356 357 10 51 83 94 99 96 96 95 91 88 81 64 195 152 108 76 72 82 82 101 120 125 148 160 183 203 212 228 231 195 182 165 134 185 191 182 178 179 179 182 182 181 184 196 227 235 232 223 214 204 192 200 201 203 212 219 226 231 234 248 254 245 240 231 235 255 235 128 143 160 164 158 155 149 136 127 125 136 149 160 165 169 175 178 179
18 334 340 9 39 65 79 86 95 113 114 100 92 81 65 45 199 151 102 80 93 85 75 96 110 118 141 158 168 174 212 216 184 178 159 139 182 198 195 188 184 186 183 180 182 180 198 233 214 268 316 340 8 28 166 191 195 201 210 218 224 230 237 243 243 240 234 238 245 125 135 148 156 162 162 159 153 144 137 129 124 128 142 154 163 168 173 179
45 331 19 59 52 47 49 60 71 98 129 132 113 90 82 69 29 8 80 105 145 107 69 80 97 102 158 151 143 135 117 121 134 146 153 155 181 212 208 198 193 191 182 176 183 181 216 225 207 235 318 21 16 31 98 175 186 186 196 201 209 225 224 227 235 240 251 250 207 148 155 158 155 162 166 157 154 152 144 137 128 117 121 142 160 168 170 178
47 351 43 115 98 44 51 74 73 80 95 106 102 87 86 91 67 50 46 42 102 107 53 96 97 90 136 143 158 146 121 129 148 148 146 151 177 198 206 222 233 209 190 206 196 186 206 227 206 211 238 252 349 247 107 147 172 170 183 191 195 217 217 222 232 240 257 255 191 151 157 159 155 159 160 156 158 154 145 140 128 118 130 150 163 168 172 180
49 34 32 71 97 103 110 93 81 86 95 96 94 88 87 90 80 69 55 41 53 81 94 109 97 87 109 117 127 135 136 138 155 172 170 151 163 176 182 231 266 293 242 242 223 199 202 230 226 216 232 229 219 228 221 211 208 203 205 204 195 196 198 207 224 233 238 231 178 159 156 151 155 161 158 157 163 161 157 144 127 136 154 164 167 167 169 169
54 68 75 75 77 94 96 86 80 81 82 85 89 87 87 91 90 79 66 62 68 71 86 100 91 83 98 111 110 117 151 138 114 184 193 173 167 188 190 212 229 317 298 251 243 221 209 242 258 244 238 234 229 240 232 226 234 224 218 222 210 198 196 197 203 208 202 188 169 161 152 146 157 166 159 154 158 164 167 157 153 164 170 171 172 167 166 167
43 69 103 91 46 64 90 94 101 93 75 79 94 96 94 96 95 84 74 87 98 89 87 94 87 79 84 98 113 119 179 171 143 204 200 179 180 201 222 235 230 286 317 281 257 235 222 255 261 234 239 242 227 226 235 231 240 239 230 223 212 208 209 203 196 192 190 182 167 155 150 152 161 166 161 159 161 162 163 163 172 181 180 176 177 172 170 174
49 39 96 98 36 29 79 80 80 108 119 121 117 114 111 110 104 94 79 85 108 117 114 101 89 81 78 83 123 155 201 202 208 223 205 195 218 223 233 253 241 232 262 292 273 242 227 243 240 221 234 235 215 219 235 227 237 241 226 213 208 205 197 182 175 167 173 184 180 171 164 161 163 169 169 165 164 162 162 168 175 182 183 181 182 180 180 180